Home > Weather > Herat > Past weeks

Flag for Afghanistan Weather for the Past 2 Weeks in Herat, Afghanistan

Now
28 °F

Clear.


Feels Like: 28 °F
Forecast: 26 / 56 °F
Wind: 1 mph from South

Location: Herat Airport

Current Time: Feb 14, 2016 at 6:56:48 AM

Latest Report: Feb 14, 2016 at 3:25 AM


Visibility: 10 mi

Pressure: 30.24 "Hg (26.87 "Hg at 937m altitude)

Humidity: 74%

Dew point: 21 °F

Location of HeratLocation

Historic Weather in Herat — Graph

°F

Herat Temperature Yesterday

Maximum temperature yesterday: 46 °F (at 2:25 PM)
Minimum temperature yesterday: 23 °F (at 6:25 AM)
Average temperature yesterday: 37 °F

High & Low Weather Summary for the Past Weeks

 TemperatureHumidityPressure
High68 °F (Feb 7, 1:25 PM)100% (Feb 5, 5:25 AM)30.39 "Hg (Feb 5, 5:25 AM)
Low19 °F (Feb 11, 7:25 AM)10% (Feb 7, 1:25 PM)29.92 "Hg (Feb 8, 5:25 PM)
Average42 °F56%30.20 "Hg
* Reported Jan 30 6:25 AM — Feb 14 3:25 AM, Herat, Weather by CustomWeather, © 2016

Note: Actual official high and low records may vary slightly from our data, if they occured in-between our weather recording intervals... More about our weather records

Advertising

Herat Weather History for the Previous 24 Hours

 ConditionsComfort  
Time TempWeatherWind HumidityBarometerVisibility
3:25 AM
Sun, Feb 14
28 °FClear.1 mph74%30.24 "Hg10 mi
2:25 AM28 °FClear.6 mph74%30.24 "Hg10 mi
1:25 AM27 °FClear.No wind74%30.24 "Hg6 mi
12:25 AM28 °FClear.1 mph69%30.24 "Hg10 mi
11:25 PM
Sat, Feb 13
34 °FClear.3 mph60%30.24 "Hg10 mi
10:25 PM34 °FClear.7 mph60%30.24 "Hg10 mi
9:25 PM34 °FClear.2 mph60%30.24 "Hg10 mi
8:25 PM39 °FClear.3 mph52%30.24 "Hg10 mi
7:25 PM41 °FClear.3 mph45%30.24 "Hg10 mi
6:25 PM43 °FSunny.3 mph46%30.21 "Hg10 mi
5:25 PM45 °FSunny.9 mph42%30.21 "Hg10 mi
4:25 PM46 °FSunny.10 mph43%30.18 "Hg10 mi
3:25 PM46 °FSunny.8 mph43%30.18 "Hg10 mi
2:25 PM46 °FSunny.7 mph46%30.18 "Hg10 mi
1:25 PM43 °FClear.6 mph57%30.21 "Hg4 mi
12:25 PM41 °FClear.5 mph81%30.21 "Hg4 mi
11:25 AM37 °FClear.3 mph70%30.24 "Hg4 mi
10:25 AM34 °FClear.No wind75%30.24 "Hg4 mi
9:25 AM32 °FClear.No wind80%30.24 "Hg4 mi
8:25 AM27 °FSunny.No wind93%30.24 "Hg10 mi
7:25 AM23 °FClear.No wind100%30.21 "Hg10 mi
6:25 AM23 °FClear.No wind100%30.21 "Hg10 mi
Weather by CustomWeather, © 2016

See weather overviewHow to use our weather pages